User: anonymous
Location: Coffee Creek Observatory
(38.8077°N, 94.7179°W)
Time: 02:39:12
(UTC-05:00)
Language:

Lacrosse 4 Rocket - Orbit

View from above orbital plane
View from above orbital plane
View from above satellite
View from above satellite

Ground track
Ground track

The orbit data is extracted from the following two-line orbital elements,

1 26474U 00047B   14203.68193721  .00000298  00000-0  39264-4 0  6827
2 26474 067.9942 245.5097 0057466 043.7056 316.8613 14.92920892756908
Epoch (UTC): 22 July 2014 16:21:59
Eccentricity: 0.0057466
inclination: 67.9942°
perigee height: 549 km
apogee height: 629 km
right ascension of ascending node: 245.5097°
argument of perigee: 43.7056°
revolutions per day: 14.92920892
mean anomaly at epoch: 316.8613°
orbit number at epoch: 75690

The dashed part of the orbit path shows where the satellite is in the earth's shadow,  

DLR